TimeMST,TemperatureF,Dew PointF,Humidity,Sea Level PressureIn,VisibilityMPH,Wind Direction,Wind SpeedMPH,Gust SpeedMPH,PrecipitationIn,Events,Conditions,WindDirDegrees,DateUTC
12:53 AM,26.1,17.1,69,30.29,10.0,West,10.4,19.6,N/A,,Overcast,270,2013-02-14 07:53:00
1:05 AM,24.8,17.6,74,30.21,10.0,West,10.4,-,N/A,,Overcast,260,2013-02-14 08:05:00
1:53 AM,24.1,16.0,71,30.32,10.0,West,9.2,-,N/A,,Scattered Clouds,260,2013-02-14 08:53:00
2:53 AM,21.0,14.0,74,30.35,10.0,SW,8.1,-,N/A,,Clear,230,2013-02-14 09:53:00
3:53 AM,21.0,12.9,71,30.35,10.0,West,9.2,-,N/A,,Mostly Cloudy,260,2013-02-14 10:53:00
4:53 AM,21.9,14.0,72,30.37,10.0,WSW,9.2,-,N/A,,Overcast,240,2013-02-14 11:53:00
5:53 AM,21.9,15.1,75,30.40,10.0,SW,11.5,-,N/A,,Overcast,220,2013-02-14 12:53:00
6:53 AM,21.0,15.1,78,30.43,10.0,WSW,8.1,-,N/A,,Scattered Clouds,240,2013-02-14 13:53:00
7:53 AM,21.0,15.1,78,30.44,10.0,SW,10.4,-,N/A,,Partly Cloudy,220,2013-02-14 14:53:00
8:53 AM,21.9,16.0,78,30.45,10.0,SW,9.2,-,N/A,,Overcast,220,2013-02-14 15:53:00
9:53 AM,24.1,17.1,75,30.45,10.0,SW,11.5,-,N/A,,Partly Cloudy,220,2013-02-14 16:53:00
10:53 AM,25.0,17.1,72,30.45,10.0,SW,10.4,-,N/A,,Scattered Clouds,220,2013-02-14 17:53:00
11:53 AM,28.0,18.0,66,30.44,10.0,SW,11.5,-,N/A,,Scattered Clouds,220,2013-02-14 18:53:00
12:53 PM,28.9,19.9,69,30.41,10.0,SW,9.2,-,N/A,,Clear,230,2013-02-14 19:53:00
1:53 PM,30.0,21.9,72,30.40,10.0,SW,12.7,-,N/A,,Clear,220,2013-02-14 20:53:00
2:53 PM,30.9,21.9,69,30.39,10.0,SSW,12.7,-,N/A,,Clear,210,2013-02-14 21:53:00
3:53 PM,32.0,21.0,64,30.38,10.0,SW,9.2,-,N/A,,Clear,220,2013-02-14 22:53:00
4:53 PM,30.0,21.0,69,30.38,10.0,SW,5.8,-,N/A,,Clear,220,2013-02-14 23:53:00
5:53 PM,25.0,18.0,75,30.40,10.0,Calm,Calm,-,N/A,,Clear,0,2013-02-15 00:53:00
6:53 PM,24.1,18.0,77,30.40,10.0,ENE,4.6,-,N/A,,Clear,60,2013-02-15 01:53:00
7:53 PM,24.1,18.0,77,30.38,10.0,East,3.5,-,N/A,,Overcast,100,2013-02-15 02:53:00
8:53 PM,25.0,19.0,78,30.38,10.0,Calm,Calm,-,N/A,,Overcast,0,2013-02-15 03:53:00
9:53 PM,24.1,19.0,81,30.39,10.0,Calm,Calm,-,N/A,,Overcast,0,2013-02-15 04:53:00
10:53 PM,23.0,19.0,85,30.40,10.0,Calm,Calm,-,N/A,,Overcast,0,2013-02-15 05:53:00
11:53 PM,24.1,19.0,81,30.42,10.0,Calm,Calm,-,N/A,,Overcast,0,2013-02-15 06:53:00